This is the latest recevied weather packets stored in our database for station/object KE2HEH. If no packets are shown the sender has not sent any weather packets the latest 10 day(s).
| Time | Temp. | Humidity | Pressure | Rain* | Wind** | Luminosity | Snow |
|---|---|---|---|---|---|---|---|
| 1777464367 | 12.22° C | 74% | 1017.1 hPa | 0 mm | - | 281 W/m² | - |
| 1777464062 | 11.67° C | 74% | 1017.1 hPa | 0 mm | - | 226 W/m² | - |
| 1777463757 | 12.22° C | 76% | 1017 hPa | 0 mm | - | 223 W/m² | - |
| 1777463452 | 11.67° C | 76% | 1017 hPa | 0 mm | - | 245 W/m² | - |
| 1777463148 | 11.67° C | 77% | 1017.3 hPa | 0 mm | - | 253 W/m² | - |
| 1777462845 | 11.67° C | 79% | 1017.3 hPa | 0 mm | - | 292 W/m² | - |
| 1777462540 | 11.67° C | 80% | 1017.2 hPa | 0 mm | - | 285 W/m² | - |
| 1777462236 | 11.11° C | 80% | 1017.4 hPa | 0 mm | - | 233 W/m² | - |
| 1777461933 | 11.11° C | 81% | 1017.3 hPa | 0 mm | - | 198 W/m² | - |
| 1777461630 | 11.11° C | 81% | 1017.4 hPa | 0 mm | - | 161 W/m² | - |
| 1777461330 | 11.11° C | 80% | 1017.5 hPa | 0 mm | - | 149 W/m² | - |
| 1777461026 | 11.11° C | 80% | 1017.6 hPa | 0 mm | - | 118 W/m² | - |
| 1777460722 | 11.11° C | 81% | 1017.7 hPa | 0 mm | - | 94 W/m² | - |
| 1777460418 | 11.11° C | 81% | 1017.8 hPa | 0 mm | - | 86 W/m² | - |
| 1777460114 | 11.11° C | 81% | 1017.9 hPa | 0 mm | - | 84 W/m² | - |
| 1777459811 | 10.56° C | 81% | 1017.8 hPa | 0 mm | - | 73 W/m² | - |
| 1777459508 | 10.56° C | 81% | 1017.8 hPa | 0 mm | - | 64 W/m² | - |
| 1777459206 | 10.56° C | 81% | 1017.5 hPa | 0 mm | - | 60 W/m² | - |
| 1777458903 | 10.56° C | 82% | 1017.6 hPa | 0 mm | - | 48 W/m² | - |
| 1777458599 | 10.56° C | 81% | 1017.6 hPa | 0 mm | - | 35 W/m² | - |
| 1777458296 | 10.56° C | 81% | 1017.5 hPa | 0 mm | - | 34 W/m² | - |
| 1777457991 | 10.56° C | 81% | 1017.6 hPa | 0 mm | - | 23 W/m² | - |
| 1777457688 | 10.56° C | 81% | 1017.6 hPa | 0 mm | - | 14 W/m² | - |
| 1777457388 | 10° C | 81% | 1017.7 hPa | 0 mm | - | 7 W/m² | - |
| 1777457083 | 10° C | 81% | 1017.7 hPa | 0 mm | - | 3 W/m² | - |
* Rain latest hour (hover to see other rain measurements)
** Current wind speed in m/s (hover to see current wind gust speed)